SCP
-0 0 -0 0 0 -0 0 0 -0 -1 -0 -0 -0 -0 0 0 0 -0 0 0 -0 -0
-0 -0 -0 -0 0 -0 0 -0 1 -1 -1 -1 -0 0 0 -0 0 0 -0 0 0 -0
-1 -1 -0 0 -0 0 0 0 1 -0 -1 -1 -0 0 0 0 -0 0 0 0 0 0
-1 -1 -0 -0 0 0 0 0 -0 2 1 0 -0 -0 0 0 -0 0 0 0 0 0
-0 -0 -1 -1 -0 -0 0 0 0 0 1 1 0 -0 -0 -0 0 0 0 0 0 0
-1 -1 -1 -1 -1 -1 -1 -0 -0 0 0 1 0 -0 -0 -0 0 0 0 0 0 0
-1 -0 0 0 -0 -1 -1 -1 -1 -1 -1 -1 -1 -1 -1 -0 -0 -0 0 1 0 0
-1 -0 -0 0 -0 -1 -1 -1 -1 -1 -1 -1 -1 -1 -1 -0 -0 0 0 0 0 0
-1 -1 -1 -1 -1 -1 -1 -1 -1 -1 -1 -2 -1 -2 -2 -1 -0 -0 0 0 0 1
-1 -2 -2 -1 -1 -1 -1 -1 -1 -1 -1 -1 -1 -1 -1 -1 0 1 1 1 1 2
-0 -1 -1 -1 -1 -1 -0 -1 -0 -0 -0 -0 -0 -0 -0 0 1 2 2 2 3 4
2 1 0 -0 -0 0 0 0 0 1 1 -1 -1 -1 0 0 2 3 3 4 6 6
2 2 1 2 2 2 2 2 2 1 1 0 -0 1 0 0 4 4 5 5 5 3
3 3 5 5 4 3 3 3 2 1 1 1 1 1 1 0 5 5 4 4 4 5
Wind_Speed_500mb
82 77 65 65 60 53 48 41 45 38 38 33 39 33 39 38 30 27 27 25 31 28
81 84 83 71 68 54 49 48 35 42 41 38 34 49 46 43 37 27 28 26 26 33
89 84 83 79 72 71 58 49 37 44 46 42 35 46 44 48 45 41 42 34 31 29
93 89 83 84 81 71 71 68 56 37 49 52 43 41 55 55 49 47 47 45 39 39
89 91 89 86 84 79 72 66 62 65 49 56 51 42 54 61 58 50 52 52 52 54
91 95 95 92 86 85 81 77 76 71 71 71 67 59 53 58 61 60 62 64 61 58
95 93 92 93 90 87 87 86 81 81 80 78 78 73 66 62 62 66 67 70 73 71
90 89 88 89 89 89 87 88 89 86 85 82 80 81 76 71 68 69 72 72 78 83
90 87 88 90 92 89 89 85 84 89 89 87 88 86 83 78 77 79 77 77 79 82
93 93 92 91 90 90 93 89 87 87 89 93 95 93 86 82 82 81 82 83 83 82
91 94 92 92 91 89 91 95 95 92 92 94 99 98 94 88 85 88 91 93 94 93
85 91 93 97 95 91 89 93 98 100 101 103 105 104 101 92 88 92 99 108 109 109
88 89 98 98 96 92 92 92 91 97 100 102 105 103 100 94 90 99 114 111 116 116
82 92 86 89 89 89 87 87 91 89 87 88 90 91 92 91 93 100 96 96 91 92
Wind_Direction_500mb
219 222 219 213 214 218 216 225 232 237 235 233 234 232 213 227 233 235 218 214 203 190
221 222 229 222 215 214 225 218 234 236 230 231 237 233 218 218 230 230 237 229 211 205
229 226 227 229 224 215 211 215 222 238 237 242 252 223 224 224 224 229 235 236 230 219
227 230 227 228 229 224 220 217 210 222 239 240 249 232 218 224 228 233 232 241 236 237
229 229 231 228 228 231 229 229 226 219 226 240 247 246 232 230 226 225 244 244 242 241
233 233 232 234 231 232 236 234 235 236 231 235 246 249 246 241 238 231 232 247 248 246
230 232 232 237 239 238 236 239 239 239 242 240 244 249 250 248 244 245 242 242 252 256
234 231 232 234 238 241 241 239 241 242 243 245 245 246 247 247 247 249 250 247 247 253
232 236 232 234 236 236 239 241 240 241 243 244 244 246 248 248 245 247 249 252 252 251
226 231 236 238 237 236 236 239 240 240 242 244 246 248 250 249 247 248 249 254 256 255
223 227 233 238 238 237 236 237 239 240 242 244 246 248 250 251 246 248 251 254 254 258
224 226 229 235 238 238 237 238 240 242 243 245 249 251 253 252 245 241 249 253 253 253
225 227 230 233 237 238 239 240 238 242 246 249 253 255 255 249 245 247 250 248 253 253
230 225 229 229 233 236 238 238 241 244 248 251 254 254 253 250 243 249 248 251 250 254
Wind_Speed_850mb
82 77 65 65 60 53 48 41 45 38 38 33 39 33 39 38 30 27 27 25 31 28
81 84 83 71 68 54 49 48 35 42 41 38 34 49 46 43 37 27 28 26 26 33
89 84 83 79 72 71 58 49 37 44 46 42 35 46 44 48 45 41 42 34 31 29
93 89 83 84 81 71 71 68 56 37 49 52 43 41 55 55 49 47 47 45 39 39
89 91 89 86 84 79 72 66 62 65 49 56 51 42 54 61 58 50 52 52 52 54
91 95 95 92 86 85 81 77 76 71 71 71 67 59 53 58 61 60 62 64 61 58
95 93 92 93 90 87 87 86 81 81 80 78 78 73 66 62 62 66 67 70 73 71
90 89 88 89 89 89 87 88 89 86 85 82 80 81 76 71 68 69 72 72 78 83
90 87 88 90 92 89 89 85 84 89 89 87 88 86 83 78 77 79 77 77 79 82
93 93 92 91 90 90 93 89 87 87 89 93 95 93 86 82 82 81 82 83 83 82
91 94 92 92 91 89 91 95 95 92 92 94 99 98 94 88 85 88 91 93 94 93
85 91 93 97 95 91 89 93 98 100 101 103 105 104 101 92 88 92 99 108 109 109
88 89 98 98 96 92 92 92 91 97 100 102 105 103 100 94 90 99 114 111 116 116
82 92 86 89 89 89 87 87 91 89 87 88 90 91 92 91 93 100 96 96 91 92
Wind_Direction_850mb
219 222 219 213 214 218 216 225 232 237 235 233 234 232 213 227 233 235 218 214 203 190
221 222 229 222 215 214 225 218 234 236 230 231 237 233 218 218 230 230 237 229 211 205
229 226 227 229 224 215 211 215 222 238 237 242 252 223 224 224 224 229 235 236 230 219
227 230 227 228 229 224 220 217 210 222 239 240 249 232 218 224 228 233 232 241 236 237
229 229 231 228 228 231 229 229 226 219 226 240 247 246 232 230 226 225 244 244 242 241
233 233 232 234 231 232 236 234 235 236 231 235 246 249 246 241 238 231 232 247 248 246
230 232 232 237 239 238 236 239 239 239 242 240 244 249 250 248 244 245 242 242 252 256
234 231 232 234 238 241 241 239 241 242 243 245 245 246 247 247 247 249 250 247 247 253
232 236 232 234 236 236 239 241 240 241 243 244 244 246 248 248 245 247 249 252 252 251
226 231 236 238 237 236 236 239 240 240 242 244 246 248 250 249 247 248 249 254 256 255
223 227 233 238 238 237 236 237 239 240 242 244 246 248 250 251 246 248 251 254 254 258
224 226 229 235 238 238 237 238 240 242 243 245 249 251 253 252 245 241 249 253 253 253
225 227 230 233 237 238 239 240 238 242 246 249 253 255 255 249 245 247 250 248 253 253
230 225 229 229 233 236 238 238 241 244 248 251 254 254 253 250 243 249 248 251 250 254